Back to catalog

NOAA 16 DEB

AliveSSO
NORAD 41298·DEBRIS·🇺🇸 United States

Launched Sep 21, 2000 from Vandenberg Space Force Base

Loading…

Next Passes (next 24 hours)

TLE

FreshSource: Space-Track

Epoch: Sep 14, 2026, 10:36 UTC

1 41298U 00055HA  26257.44188908  .00002297  00000-0  92950-3 0  9996
2 41298  98.7061 333.1338 0050194 126.8321 233.7480 14.28085685553415

Track NOAA 16 DEB in real time with AllMySat

Download on the App Store